sat.trackr.live / text

‹ back to catalog

STARLINK-2029

NORAD 48320 · 2021-036AW

PAYLOAD ACTIVE UNKNOWN

§ Identity

Operator
Country
US
Launch date
2021-04-29
Launch site
AFETR
Launch vehicle
Mass (kg)
RCS (m²)

Purposes: comms

External: N2YO · Heavens-Above · Gunter

§ Orbital elements

Epoch: 2026-05-25T03:22:54.007104Z

Period
94.01 min
Inclination
53.1606°
Eccentricity
0.0001371
Mean motion
15.31693162 rev/d
Perigee alt
469.8 km
Apogee alt
471.7 km
Semi-major
6,848.9 km
B*
3.0961e-5
RAAN
105.8687°
Arg perigee
99.1904°
Mean anomaly
260.9253°
Rev number
27,974

§ Raw data

STARLINK-20291 48320U 21036AW  26145.14090286  .00000595  00000+0  30961-4 0  99982 48320  53.1606 105.8687 0001371  99.1904 260.9253 15.31693162279742

JSON: /api/v1/satellites/48320 · /tle

For live sub-satellite position, see the globe view (requires WebGL).

§ Visibility from observer

Set your observer location to see the next 7 days of passes ≥ 10°. The values pass through the URL so the page stays shareable.

No JS? Fill the form by hand. The geolocation button needs JavaScript.